GW5575 Weather Reports


time (UTC)temp
C
wind
direction
speed
KPH
gust
KPH
rain 1hr
cm
rain 24hr
cm
rain mn
cm
humidity
%
barometer
mb
20260505023015 -3 306 25.7 29.0 0.00 0.00 0.00 98 1016.2
20260505022513 -3 331 25.7 29.0 0.00 0.00 0.00 98 1016.2
20260505022010 -3 344 20.9 22.5 0.00 0.00 0.00 98 1016.0
20260505021506 -3 352 24.1 27.4 0.00 0.00 0.00 98 1016.3
20260505021002 -3 287 22.5 25.7 0.00 0.00 0.00 98 1016.2
20260505020457 -2 263 40.2 46.7 0.00 0.00 0.00 98 1016.3
20260505015954 -2 283 49.9 51.5 0.00 0.00 0.00 98 1015.9
20260505015451 -2 261 37.0 41.8 0.00 0.00 0.00 98 1016.0
20260505014948 -2 241 41.8 43.5 0.00 0.00 0.00 98 1015.9
20260505014445 -2 237 29.0 33.8 0.00 0.00 0.00 98 1016.0
20260505013942 -2 257 32.2 35.4 0.00 0.00 0.00 97 1016.5
20260505013439 -2 242 25.7 27.4 0.00 0.00 0.00 96 1016.0
20260505012937 -2 243 29.0 29.0 0.00 0.00 0.00 95 1016.0
20260505012435 -2 239 22.5 24.1 0.00 0.00 0.00 92 1016.3
20260505011931 -2 250 19.3 20.9 0.00 0.00 0.00 92 1016.3
20260505011427 -2 272 14.5 14.5 0.00 0.00 0.00 92 1016.3
20260505010924 -2 235 14.5 14.5 0.00 0.00 0.00 92 1016.3
20260505010420 -2 270 22.5 24.1 0.00 0.00 0.00 91 1016.5
20260505005916 -2 275 24.1 24.1 0.00 0.00 0.00 90 1016.3
20260505005413 -2 275 22.5 24.1 0.00 0.00 0.00 91 1016.3
20260505004911 -2 280 24.1 25.7 0.00 0.00 0.00 92 1016.5
20260505004407 -2 276 20.9 22.5 0.00 0.00 0.00 91 1016.2
20260505003904 -2 279 20.9 22.5 0.00 0.00 0.00 92 1016.6
20260505003401 -2 273 25.7 27.4 0.00 0.00 0.00 91 1016.5
20260505002857 -1 280 22.5 24.1 0.00 0.00 0.00 90 1016.5
20260505002354 -1 276 22.5 24.1 0.00 0.00 0.00 91 1016.5
20260505001853 -1 299 12.9 12.9 0.00 0.00 0.00 93 1016.6
20260505001349 -1 288 17.7 20.9 0.00 0.00 0.00 93 1016.8
20260505000846 -1 273 19.3 20.9 0.00 0.00 0.00 91 1016.9
20260505000344 -2 256 20.9 22.5 0.00 0.00 0.00 92 1016.8
20260504235840 -2 247 20.9 20.9 0.00 0.00 0.00 94 1017.1
20260504235338 -2 252 19.3 20.9 0.00 0.00 0.00 94 1016.9
20260504234834 -2 248 25.7 27.4 0.00 0.00 0.00 94 1017.1
20260504234332 -2 236 27.4 27.4 0.00 0.00 0.00 97 1016.5
20260504233828 -2 253 24.1 27.4 0.00 0.00 0.00 97 1016.9
20260504233324 -3 260 20.9 22.5 0.00 0.00 0.00 97 1017.2
20260504232821 -3 254 29.0 32.2 0.00 0.00 0.00 97 1017.4
20260504232318 -2 284 19.3 20.9 0.00 0.00 0.00 97 1017.2
20260504231815 -3 252 12.9 12.9 0.00 0.00 0.00 97 1017.7
20260504231312 -3 263 11.3 12.9 0.00 0.00 0.00 97 1017.4
20260504230808 -2 302 6.4 8.0 0.00 0.00 0.00 97 1017.5
20260504230306 -3 278 11.3 12.9 0.00 0.00 0.00 97 1017.4
20260504225804 -3 275 12.9 16.1 0.00 0.00 0.00 96 1017.5
20260504225300 -2 275 27.4 29.0 0.00 0.00 0.00 96 1017.5
20260504224757 -2 276 32.2 35.4 0.00 0.00 0.00 95 1017.4
20260504224255 -2 272 41.8 43.5 0.00 0.00 0.00 91 1016.8
20260504223751 -1 283 30.6 33.8 0.00 0.00 0.00 86 1017.4
20260504223247 -1 278 33.8 40.2 0.00 0.00 0.00 79 1016.9
20260504222744 0 320 19.3 24.1 0.00 0.00 0.00 81 1017.1
20260504222240 0 270 24.1 29.0 0.00 0.00 0.00 76 1016.8
20260504221738 0 290 17.7 17.7 0.00 0.00 0.00 76 1017.2
20260504221235 0 277 19.3 24.1 0.00 0.00 0.00 76 1017.4
20260504220731 0 281 16.1 17.7 0.00 0.00 0.00 76 1017.5
20260504220229 0 248 14.5 14.5 0.00 0.00 0.00 74 1017.5
20260504215726 0 287 11.3 12.9 0.00 0.00 0.00 79 1017.4
20260504215223 0 288 12.9 12.9 0.00 0.00 0.00 77 1017.2
20260504214718 0 281 12.9 14.5 0.00 0.00 0.00 77 1017.2
20260504214215 0 152 17.7 17.7 0.00 0.00 0.00 76 1017.4
20260504213712 0 116 14.5 16.1 0.00 0.00 0.00 78 1017.5
20260504213208 0 285 20.9 24.1 0.00 0.00 0.00 79 1017.5
20260504212705 0 275 12.9 16.1 0.00 0.00 0.00 79 1017.5
20260504212202 0 267 20.9 22.5 0.00 0.00 0.00 79 1017.9
20260504211659 0 285 25.7 27.4 0.00 0.00 0.00 77 1017.9
20260504211155 0 238 11.3 14.5 0.00 0.00 0.00 78 1017.7
20260504210653 -1 257 16.1 16.1 0.00 0.00 0.00 77 1017.9
20260504210149 -1 254 19.3 20.9 0.00 0.00 0.00 75 1018.1
20260504205647 -1 294 14.5 16.1 0.00 0.00 0.00 75 1017.9
20260504205144 -1 286 20.9 22.5 0.00 0.00 0.00 78 1017.9
20260504204643 0 286 25.7 27.4 0.00 0.00 0.00 75 1018.2
20260504204141 0 250 25.7 29.0 0.00 0.00 0.00 72 1017.9
20260504203639 0 283 30.6 33.8 0.00 0.00 0.00 70 1017.9
20260504203137 0 295 25.7 27.4 0.00 0.00 0.00 68 1018.1
20260504202637 0 295 27.4 29.0 0.00 0.00 0.00 65 1018.1
20260504202134 0 286 24.1 25.7 0.00 0.00 0.00 65 1017.7
20260504201631 0 255 20.9 27.4 0.00 0.00 0.00 65 1017.9
20260504201129 0 282 24.1 27.4 0.00 0.00 0.00 56 1018.1
20260504200626 0 293 24.1 27.4 0.00 0.00 0.00 62 1018.1
20260504200122 0 45 24.1 25.7 0.00 0.00 0.00 59 1017.8
20260504195618 0 280 22.5 22.5 0.00 0.00 0.00 64 1018.1
20260504195114 0 295 27.4 32.2 0.00 0.00 0.00 62 1017.8
20260504194611 0 258 25.7 27.4 0.00 0.00 0.00 61 1017.9
20260504194107 0 257 37.0 41.8 0.00 0.00 0.00 59 1018.1
20260504193603 0 281 20.9 27.4 0.00 0.00 0.00 58 1018.1
20260504193102 0 266 29.0 35.4 0.00 0.00 0.00 61 1017.9
20260504192600 0 282 17.7 20.9 0.00 0.00 0.00 61 1018.1
20260504192058 0 271 25.7 25.7 0.00 0.00 0.00 64 1017.9
20260504191556 0 265 27.4 32.2 0.00 0.00 0.00 64 1018.1
20260504191051 0 265 19.3 22.5 0.00 0.00 0.00 66 1018.5
20260504190548 0 289 16.1 16.1 0.00 0.00 0.00 67 1018.5
20260504190044 0 277 20.9 24.1 0.00 0.00 0.00 66 1018.4
20260504185541 0 260 25.7 27.4 0.00 0.00 0.00 64 1018.5
20260504185038 0 279 20.9 25.7 0.00 0.00 0.00 68 1018.7
20260504184533 -1 268 12.9 12.9 0.00 0.00 0.00 76 1018.8
20260504184029 -1 266 12.9 14.5 0.00 0.00 0.00 77 1018.8
20260504183526 -1 284 20.9 22.5 0.00 0.00 0.00 80 1019.0
20260504183024 -2 302 20.9 24.1 0.00 0.00 0.00 86 1019.0
20260504182520 -2 284 17.7 17.7 0.00 0.00 0.00 90 1019.1
20260504182018 -2 274 25.7 27.4 0.00 0.00 0.00 90 1018.8
20260504181515 -2 279 27.4 33.8 0.00 0.00 0.00 87 1019.3
20260504181014 -2 289 30.6 35.4 0.00 0.00 0.00 85 1018.8
20260504180512 -2 255 30.6 35.4 0.00 0.00 0.00 89 1018.8
20260504180010 -2 227 27.4 29.0 0.00 0.00 0.00 91 1019.3
20260504175507 -2 202 19.3 25.7 0.00 0.00 0.00 90 1019.0
20260504175004 -2 240 27.4 29.0 0.00 0.00 0.00 91 1019.3
20260504174502 -2 240 24.1 27.4 0.00 0.00 0.00 90 1019.4
20260504173959 -2 254 19.3 20.9 0.00 0.00 0.00 87 1019.3
20260504173455 -2 255 27.4 29.0 0.00 0.00 0.00 86 1019.0
20260504172953 -1 259 35.4 37.0 0.00 0.00 0.00 83 1019.1
20260504172448 -1 247 27.4 32.2 0.00 0.00 0.00 76 1019.3
20260504171945 -1 285 27.4 29.0 0.00 0.00 0.00 73 1019.1
20260504171443 -1 275 33.8 35.4 0.00 0.00 0.00 74 1019.0
20260504170939 -1 291 30.6 37.0 0.00 0.00 0.00 72 1019.0
20260504170436 -1 295 25.7 29.0 0.00 0.00 0.00 71 1019.1
20260504160355 -1 253 17.7 20.9 0.00 0.00 0.00 74 1019.3
20260504150820 -2 258 24.1 24.1 0.00 0.00 0.00 79 1019.7
20260504150316 -2 228 25.7 29.0 0.00 0.00 0.00 79 1019.7
20260504141246 -2 266 22.5 24.1 0.00 0.00 0.00 80 1019.8
20260504140742 -2 281 29.0 32.2 0.00 0.00 0.00 80 1019.7
20260504140238 -2 295 25.7 27.4 0.00 0.00 0.00 78 1019.5
20260504130707 -2 261 24.1 25.7 0.00 0.00 0.00 74 1019.3
20260504130203 -2 283 22.5 24.1 0.00 0.00 0.00 73 1019.1
20260504120127 -2 248 32.2 33.8 0.00 0.00 0.00 61 1019.1
20260504110554 -1 281 19.3 20.9 0.00 0.00 0.00 56 1019.3
20260504100516 -1 261 17.7 17.7 0.00 0.00 0.00 57 1019.0
20260504081909 -1 267 25.7 27.4 0.00 0.00 0.00 56 1019.8
20260504081406 -1 265 29.0 33.8 0.00 0.00 0.00 57 1020.0
20260504080902 -1 261 22.5 25.7 0.00 0.00 0.00 57 1020.4
20260504080359 -1 261 27.4 27.4 0.00 0.00 0.00 57 1020.1
20260504070326 -1 264 27.4 29.0 0.00 0.00 0.00 58 1021.0
20260504060247 -1 256 17.7 17.7 0.00 0.00 0.00 59 1021.3
20260504050715 0 272 14.5 14.5 0.00 0.00 0.00 57 1021.6
20260504050212 0 295 19.3 20.9 0.00 0.00 0.00 56 1021.7
20260504045709 -1 284 20.9 22.5 0.00 0.00 0.00 60 1021.9
20260504045209 0 299 19.3 22.5 0.00 0.00 0.00 58 1021.9
20260504044708 0 271 20.9 22.5 0.00 0.00 0.00 59 1022.0
20260504044204 0 272 25.7 27.4 0.00 0.00 0.00 59 1021.9
20260504043701 0 268 19.3 20.9 0.00 0.00 0.00 59 1022.2
20260504043158 0 256 17.7 20.9 0.00 0.00 0.00 60 1022.0
20260504042655 0 273 20.9 22.5 0.00 0.00 0.00 59 1022.0
20260504042152 0 261 14.5 16.1 0.00 0.00 0.00 59 1022.2
20260504041648 0 257 17.7 17.7 0.00 0.00 0.00 58 1022.3
20260504041144 0 276 17.7 17.7 0.00 0.00 0.00 58 1022.2
20260504040641 0 261 16.1 16.1 0.00 0.00 0.00 58 1022.5
20260504040138 0 274 14.5 16.1 0.00 0.00 0.00 58 1022.5
20260504035635 0 262 17.7 17.7 0.00 0.00 0.00 58 1022.3
20260504035131 0 263 19.3 20.9 0.00 0.00 0.00 57 1022.2
20260504034629 0 270 17.7 17.7 0.00 0.00 0.00 57 1022.2
20260504034126 0 262 17.7 17.7 0.00 0.00 0.00 57 1022.3
20260504033624 0 278 17.7 17.7 0.00 0.00 0.00 57 1022.0
20260504033121 0 285 16.1 17.7 0.00 0.00 0.00 57 1022.7
20260504032618 0 278 12.9 14.5 0.00 0.00 0.00 57 1022.5
20260504032115 0 283 14.5 14.5 0.00 0.00 0.00 57 1022.3
20260504031612 0 282 16.1 16.1 0.00 0.00 0.00 56 1022.5
20260504031108 0 282 17.7 17.7 0.00 0.00 0.00 57 1022.5
20260504030605 0 278 17.7 20.9 0.00 0.00 0.00 56 1022.3
20260504030101 0 280 22.5 24.1 0.00 0.00 0.00 56 1022.0
20260504025558 0 238 24.1 25.7 0.00 0.00 0.00 56 1022.2
20260504025055 0 330 24.1 25.7 0.00 0.00 0.00 56 1022.2
20260504024552 0 253 20.9 22.5 0.00 0.00 0.00 57 1022.2
20260504024049 0 76 22.5 24.1 0.00 0.00 0.00 57 1021.9
20260504023546 0 145 27.4 29.0 0.00 0.00 0.00 57 1022.0